SKYSAT-C11

Last updated on Thu Oct 30 2025 00:02:32 GMT+0000 (Coordinated Universal Time)

1 42987U 17068A 25302.34718434 .00028187 00000+0 60059-3 0 9996 2 42987 97.4116 78.8382 0000517 72.9175 287.2130 15.44893147447453
UTC large
Height (km)
Speed (km/s)
/
Latitude / Longitude
Inclination (degrees)
Orbital Period (minutes)
Azimuth
Elevation
Range (km)
Doppler Factor

Next 0 passes for location: London (51.5072 / 0.1276)

Sorry there are no passes over London.